Hourly Weather Bolshoe Ilino

Today, 25 July, Sunday

Time Temperature Precipitation Wind Pressure Humidity
00:00 +12°C° 0 mm 1 mps 742 mmHg 73%
01:00 +12°C° 0 mm 1 mps 743 mmHg 73%
02:00 +12°C° 0 mm 1 mps 743 mmHg 72%
03:00 +13°C° 0 mm 1 mps 743 mmHg 70%
04:00 +14°C° 0 mm 1 mps 743 mmHg 69%
05:00 +14°C° 0 mm 1 mps 743 mmHg 67%
06:00 +16°C° 0 mm 1 mps 743 mmHg 63%
07:00 +18°C° 0 mm 1 mps 743 mmHg 59%
08:00 +19°C° 0 mm 1 mps 744 mmHg 55%
09:00 +21°C° 0 mm 1 mps 744 mmHg 49%
10:00 +23°C° 0 mm 1 mps 744 mmHg 43%
11:00 +24°C° 0 mm 1 mps 744 mmHg 37%
12:00 +24°C° 0 mm 1 mps 744 mmHg 40%
13:00 +24°C° 0 mm 1 mps 744 mmHg 44%
14:00 +23°C° 0 mm 1 mps 744 mmHg 47%
15:00 +23°C° 0 mm 1 mps 744 mmHg 52%
16:00 +22°C° 0 mm 1 mps 744 mmHg 56%
17:00 +22°C° 0 mm 1 mps 744 mmHg 61%
18:00 +21°C° 0 mm 1 mps 744 mmHg 62%
19:00 +20°C° 0 mm 1 mps 744 mmHg 62%
20:00 +19°C° 0 mm 1 mps 744 mmHg 63%
21:00 +19°C° 0 mm 1 mps 744 mmHg 64%
22:00 +18°C° 0 mm 1 mps 745 mmHg 65%
23:00 +18°C° 0 mm 1 mps 745 mmHg 66%

Tomorrow, 26 July, Monday

Time Temperature Precipitation Wind Pressure Humidity
00:00 +16°C° 0 mm 1 mps 745 mmHg 68%
01:00 +16°C° 0 mm 1 mps 745 mmHg 70%
02:00 +15°C° 0 mm 1 mps 745 mmHg 73%
03:00 +14°C° 0 mm 0 mps 745 mmHg 74%
04:00 +14°C° 0 mm 0 mps 745 mmHg 75%
05:00 +14°C° 0 mm 0 mps 745 mmHg 76%
06:00 +17°C° 0 mm 0 mps 745 mmHg 67%
07:00 +19°C° 0 mm 0 mps 746 mmHg 59%
08:00 +21°C° 0 mm 0 mps 746 mmHg 50%
09:00 +23°C° 0 mm 0 mps 746 mmHg 46%
10:00 +26°C° 0 mm 1 mps 746 mmHg 42%
11:00 +27°C° 0 mm 1 mps 746 mmHg 38%
12:00 +27°C° 0 mm 1 mps 746 mmHg 37%
13:00 +28°C° 0 mm 1 mps 746 mmHg 36%
14:00 +28°C° 0 mm 1 mps 745 mmHg 34%
15:00 +27°C° 0 mm 1 mps 745 mmHg 41%
16:00 +26°C° 0 mm 1 mps 745 mmHg 48%
17:00 +25°C° 0 mm 1 mps 745 mmHg 55%
18:00 +23°C° 0 mm 1 mps 745 mmHg 58%
19:00 +22°C° 0 mm 1 mps 745 mmHg 61%
20:00 +18°C° 0 mm 0 mps 745 mmHg 64%
21:00 +18°C° 0 mm 0 mps 746 mmHg 65%
22:00 +17°C° 0 mm 0 mps 746 mmHg 66%
23:00 +16°C° 0 mm 0 mps 746 mmHg 66%

Day after tomorrow, 27 July, Tuesday

Time Temperature Precipitation Wind Pressure Humidity
00:00 +16°C° 0 mm 0 mps 746 mmHg 67%
01:00 +16°C° 0 mm 1 mps 746 mmHg 68%
02:00 +16°C° 0 mm 1 mps 746 mmHg 68%
03:00 +16°C° 0 mm 1 mps 746 mmHg 69%
04:00 +16°C° 0 mm 0 mps 746 mmHg 70%
05:00 +16°C° 0 mm 0 mps 746 mmHg 70%
06:00 +20°C° 0 mm 1 mps 746 mmHg 63%
07:00 +23°C° 0 mm 1 mps 746 mmHg 56%
08:00 +25°C° 0 mm 1 mps 746 mmHg 49%
09:00 +26°C° 0 mm 1 mps 746 mmHg 45%
10:00 +28°C° 0 mm 1 mps 745 mmHg 41%
11:00 +29°C° 0 mm 1 mps 745 mmHg 38%
12:00 +29°C° 0 mm 1 mps 745 mmHg 40%
13:00 +28°C° 0 mm 1 mps 745 mmHg 43%
14:00 +28°C° 0 mm 1 mps 744 mmHg 45%
15:00 +27°C° 0 mm 1 mps 744 mmHg 48%
16:00 +27°C° 0 mm 1 mps 744 mmHg 51%
17:00 +26°C° 0 mm 1 mps 744 mmHg 54%
18:00 +24°C° 0 mm 1 mps 743 mmHg 60%
19:00 +23°C° 0 mm 1 mps 743 mmHg 66%
20:00 +21°C° 0 mm 1 mps 743 mmHg 72%
21:00 +21°C° 0 mm 1 mps 743 mmHg 73%
22:00 +20°C° 0 mm 1 mps 743 mmHg 74%
23:00 +20°C° 0 mm 1 mps 743 mmHg 75%

28 July, Wednesday

Time Temperature Precipitation Wind Pressure Humidity
00:00 +19°C° 0 mm 1 mps 742 mmHg 77%
01:00 +18°C° 0 mm 2 mps 742 mmHg 79%
02:00 +17°C° 0 mm 2 mps 742 mmHg 82%
03:00 +17°C° 0 mm 2 mps 741 mmHg 83%
04:00 +18°C° 0 mm 1 mps 741 mmHg 84%
05:00 +19°C° 0 mm 1 mps 741 mmHg 85%
06:00 +19°C° 0 mm 2 mps 741 mmHg 80%
07:00 +20°C° 0 mm 2 mps 740 mmHg 74%
08:00 +23°C° 0 mm 2 mps 740 mmHg 69%
09:00 +21°C° 0.1 mm 2 mps 740 mmHg 72%
10:00 +21°C° 0.1 mm 2 mps 739 mmHg 76%
11:00 +20°C° 0.1 mm 3 mps 739 mmHg 79%
12:00 +20°C° 0.7 mm 3 mps 739 mmHg 84%
13:00 +19°C° 0.7 mm 3 mps 738 mmHg 89%
14:00 +18°C° 0.7 mm 3 mps 738 mmHg 94%
15:00 +18°C° 1 mm 3 mps 737 mmHg 95%
16:00 +18°C° 1 mm 3 mps 737 mmHg 96%
17:00 +18°C° 1 mm 4 mps 736 mmHg 97%
18:00 +18°C° 0.3 mm 3 mps 736 mmHg 97%
19:00 +18°C° 0.3 mm 3 mps 736 mmHg 98%
20:00 +18°C° 0.3 mm 2 mps 735 mmHg 98%
21:00 +18°C° 0.3 mm 2 mps 735 mmHg 98%
22:00 +18°C° 0.3 mm 2 mps 734 mmHg 98%
23:00 +18°C° 0.3 mm 2 mps 734 mmHg 98%

29 July, Thursday

Time Temperature Precipitation Wind Pressure Humidity
00:00 +18°C° 0 mm 2 mps 734 mmHg 98%
01:00 +18°C° 0 mm 2 mps 734 mmHg 98%
02:00 +18°C° 0 mm 3 mps 733 mmHg 98%
03:00 +18°C° 0.1 mm 3 mps 733 mmHg 98%
04:00 +18°C° 0.1 mm 3 mps 733 mmHg 98%
05:00 +18°C° 0.1 mm 3 mps 733 mmHg 98%
06:00 +18°C° 0.2 mm 3 mps 733 mmHg 97%
07:00 +18°C° 0.2 mm 3 mps 733 mmHg 97%
08:00 +18°C° 0.2 mm 4 mps 734 mmHg 97%
09:00 +18°C° 0.2 mm 4 mps 734 mmHg 96%
10:00 +19°C° 0.2 mm 4 mps 734 mmHg 95%
11:00 +19°C° 0.2 mm 4 mps 734 mmHg 94%
12:00 +19°C° 0.4 mm 4 mps 735 mmHg 93%
13:00 +20°C° 0.4 mm 4 mps 735 mmHg 92%
14:00 +20°C° 0.4 mm 4 mps 735 mmHg 91%
15:00 +20°C° 0.3 mm 3 mps 735 mmHg 91%
16:00 +20°C° 0.3 mm 3 mps 735 mmHg 90%
17:00 +20°C° 0.3 mm 3 mps 736 mmHg 89%
18:00 +20°C° 0.4 mm 2 mps 736 mmHg 92%
19:00 +19°C° 0.4 mm 2 mps 736 mmHg 94%
20:00 +18°C° 0.4 mm 2 mps 736 mmHg 97%
21:00 +17°C° 0 mm 2 mps 736 mmHg 97%
22:00 +17°C° 0 mm 2 mps 736 mmHg 97%
23:00 +16°C° 0 mm 2 mps 736 mmHg 97%

30 July, Friday

Time Temperature Precipitation Wind Pressure Humidity
00:00 +16°C° 0 mm 2 mps 736 mmHg 97%
01:00 +16°C° 0 mm 2 mps 736 mmHg 97%
02:00 +16°C° 0 mm 2 mps 737 mmHg 97%
03:00 +16°C° 0 mm 2 mps 737 mmHg 97%
04:00 +16°C° 0 mm 2 mps 737 mmHg 97%
05:00 +16°C° 0 mm 1 mps 737 mmHg 97%
06:00 +18°C° 0 mm 2 mps 737 mmHg 90%
07:00 +19°C° 0 mm 2 mps 738 mmHg 83%
08:00 +21°C° 0 mm 2 mps 738 mmHg 77%
09:00 +24°C° 0 mm 2 mps 738 mmHg 67%
10:00 +25°C° 0 mm 2 mps 738 mmHg 57%
11:00 +27°C° 0 mm 3 mps 738 mmHg 47%
12:00 +27°C° 0 mm 2 mps 738 mmHg 49%
13:00 +26°C° 0 mm 2 mps 738 mmHg 51%
14:00 +26°C° 0 mm 2 mps 738 mmHg 54%
15:00 +26°C° 0 mm 2 mps 738 mmHg 56%
16:00 +26°C° 0 mm 1 mps 737 mmHg 59%
17:00 +25°C° 0 mm 1 mps 737 mmHg 62%
18:00 +24°C° 0 mm 1 mps 737 mmHg 66%
19:00 +22°C° 0 mm 1 mps 737 mmHg 71%
20:00 +20°C° 0 mm 2 mps 737 mmHg 75%
21:00 +19°C° 0 mm 2 mps 737 mmHg 77%
22:00 +19°C° 0 mm 2 mps 736 mmHg 78%
23:00 +18°C° 0 mm 2 mps 736 mmHg 80%
Show more

We Need Your Consent

Meteoprog and our Service Providers may store and access personal data such as cookies, device identifiers or other similar technologies on your device and process such data to personalise content and ads, as well as provide social media features and to analyse the traffic.

  • Store and/or access information on your device

    Cookies, device identifiers or other information can be stored or accessed on your device for the purposes indicated above.

  • Personalised ads and content, ad and content measurement, audience insights, and products development

    Ads and content can be personalised based on a profile. More data can be added to better personalise ads and content. Ad and content performance can be measured. Insights about the audience who saw the ads and content can be derived. Such data can be used to develop or improve user’s experience, systems and software.

By clicking ‘I Agree’ you will allow the use of indicated cookies, device identifiers, web beacons or other similar technologies. Your settings can be changed in the browser on your device.

For certain purposes, legitimate interests may be relied on, rather than consent. You can read more about this in our Privacy and Cookie Policy.